[[{"header":{"parameterUnit":"m.s-1","parameterCategory":1,"la1":30.2992,"la2":30.254,"lo1":-89.0895,"lo2":-89.0443,"dy":0.0025,"dx":0.0025,"nx":19,"ny":19,"refTime":"2026-04-23T09:00:00:Z","depth":0,"parameterNumber":2,"parameterNumberName":"U-component_of_WINDS"},"data":[0,0,0,-4.3816,-4.382,-4.403,-4.4031,-4.4299,-4.4301,0,0,0,0,0,0,0,0,0,0,0,-4.3751,-4.3752,-4.3815,-4.382,-4.403,-4.4031,-4.4298,-4.4301,0,0,0,0,0,0,0,0,0,0,0,-4.375,-4.3752,-4.3754,-4.3821,-4.403,-4.4031,-4.4298,-4.414,0,0,0,0,0,0,0,0,0,0,-4.3937,-4.3873,-4.3751,-4.3754,-4.3822,-4.403,-4.4031,-4.4133,-4.415,-4.4203,0,-4.4247,0,-4.4278,-4.4319,-4.432,0,0,0,-4.3823,-4.3859,-4.3918,-4.3754,-4.3824,-4.4029,-4.3936,-4.4142,-4.4162,-4.4226,-4.4251,-4.4261,-4.4283,-4.4321,-4.4322,-4.4616,-4.4617,0,0,-4.3811,-4.3787,-4.3904,-4.393,-4.3896,-4.3929,-4.3943,-4.4154,-4.4181,-4.4252,-4.4267,-4.4287,-4.4322,-4.4324,-4.4615,-4.4616,0,0,0,-4.3776,-4.3779,-4.3833,-4.3919,-4.3957,-4.3935,-4.3951,-4.4171,-4.4191,-4.427,-4.429,-4.4324,-4.4327,-4.4613,-4.4615,-4.4653,0,0,0,-4.3769,-4.3759,-4.3828,-4.3815,-4.3953,-4.4066,-4.3963,-4.4176,-4.4201,-4.4289,-4.4324,-4.433,-4.4612,-4.4614,-4.4649,-4.4674,0,0,0,-4.3738,-4.3755,-4.3784,-4.3814,-4.3903,-4.4063,-4.4095,-4.4182,-4.4213,-4.432,-4.433,-4.4611,-4.4614,-4.4646,-4.4669,-4.4745,0,0,0,-4.3698,-4.3815,-4.3785,-4.3924,-4.3901,-4.4086,-4.4094,-4.4233,-4.433,-4.4325,-4.4612,-4.4615,-4.4645,-4.4665,-4.4741,-4.4802,-4.4826,0,0,-4.3832,-4.383,-4.3915,-4.3894,-4.4077,-4.4055,-4.4246,-4.4357,-4.4391,-4.454,-4.4547,-4.4651,-4.4668,-4.4744,-4.4973,-4.4991,0,0,0,-4.3949,-4.4009,-4.4064,-4.4154,-4.4242,-4.432,-4.4405,-4.4447,-4.4575,-4.4461,-4.47,-4.4712,-4.4757,-4.4788,-4.4804,-4.4844,-4.4629,-4.4628,-4.4628,-4.4103,-4.414,-4.4282,-4.4345,-4.4433,-4.4521,-4.4597,-4.4669,-4.4679,-4.4736,-4.4779,-4.4913,-4.4948,-4.496,-4.5002,-4.4816,-4.4817,-4.4817,-4.4817,-4.4303,-4.4393,-4.4408,-4.455,-4.4589,-4.471,-4.4802,-4.4806,-4.4926,-4.4883,-4.4924,-4.4872,-4.498,-4.5018,-4.482,-4.482,-4.4819,-4.4819,-4.4819,-4.4406,-4.4455,-4.4505,-4.4642,-4.4744,-4.4805,-4.492,-4.4952,-4.4984,-4.5025,-4.5075,-4.5075,-4.5077,-4.5048,-4.5048,-4.5048,-4.5049,-4.5049,-4.505,-4.4491,-4.4547,-4.4638,-4.4745,-4.4808,-4.4897,-4.4991,-4.5055,-4.5135,-4.515,-4.5151,-4.5156,-4.4984,-4.4939,-4.5057,-4.5056,-4.5055,-4.5054,-4.5053,-4.4676,-4.464,-4.4781,-4.4845,-4.4975,-4.5075,-4.5117,-4.5247,-4.5305,-4.5362,-4.5361,-4.5228,-4.5228,-4.5216,-4.5179,-4.5352,-4.5352,-4.5352,-4.5352,-4.4761,-4.4765,-4.4918,-4.5019,-4.5122,-4.5175,-4.5337,-4.5413,-4.5486,-4.5526,-4.5506,-4.5461,-4.5447,-4.5455,-4.5438,-4.5403,-4.563,-4.563,-4.5631,-4.4876,-4.4893,-4.5022,-4.5092,-4.5197,-4.5287,-4.5441,-4.5558,-4.5634,-4.5643,-4.5557,-4.5546,-4.5473,-4.5447,-4.5448,-4.542,-4.5358,0,0]},{"header":{"parameterUnit":"m.s-1","parameterCategory":1,"la1":30.2992,"la2":30.254,"lo1":-89.0895,"lo2":-89.0443,"dy":0.0025,"dx":0.0025,"nx":19,"ny":19,"refTime":"2026-04-23T09:00:00:Z","depth":0,"parameterNumber":3,"parameterNumberName":"V-component_of_WINDS"},"data":[0,0,0,3.8216,3.8214,3.8102,3.8101,3.7967,3.7966,0,0,0,0,0,0,0,0,0,0,0,3.8259,3.8259,3.8216,3.8214,3.8102,3.8101,3.7967,3.7966,0,0,0,0,0,0,0,0,0,0,0,3.826,3.8259,3.8259,3.8213,3.8102,3.8101,3.7968,3.8048,0,0,0,0,0,0,0,0,0,0,3.8154,3.8206,3.8259,3.8258,3.8213,3.8102,3.8101,3.8051,3.8043,3.8024,0,3.8014,0,3.7988,3.7958,3.7958,0,0,0,3.8204,3.8213,3.8174,3.8258,3.8212,3.8102,3.815,3.8046,3.8037,3.8012,3.8012,3.8006,3.7986,3.7958,3.7957,3.789,3.789,0,0,3.821,3.8244,3.8181,3.8169,3.8192,3.8153,3.8146,3.804,3.804,3.8011,3.8003,3.7984,3.7957,3.7956,3.7889,3.789,0,0,0,3.8234,3.8248,3.8212,3.8175,3.8154,3.815,3.8142,3.8044,3.803,3.8001,3.7982,3.7956,3.7955,3.7889,3.789,3.793,0,0,0,3.8238,3.8262,3.8215,3.8234,3.8157,3.8099,3.8149,3.8037,3.8024,3.7983,3.7956,3.7953,3.7889,3.7889,3.7928,3.7942,0,0,0,3.8263,3.8265,3.8253,3.8236,3.819,3.81,3.8079,3.8034,3.8013,3.7958,3.7953,3.7889,3.7889,3.7927,3.794,3.7934,0,0,0,3.8298,3.8288,3.8254,3.8235,3.8191,3.8128,3.8079,3.8029,3.7986,3.7955,3.7889,3.7889,3.7927,3.7939,3.7933,3.7936,3.7941,0,0,3.8303,3.829,3.8276,3.8242,3.8195,3.8142,3.8097,3.8024,3.7985,3.7922,3.792,3.7929,3.794,3.7934,3.7956,3.796,0,0,0,3.8288,3.8279,3.8259,3.8223,3.817,3.8124,3.8056,3.8028,3.7974,3.7962,3.7925,3.793,3.7925,3.7925,3.7928,3.7921,3.7891,3.7891,3.7891,3.8342,3.8298,3.8271,3.8214,3.8178,3.8109,3.8075,3.8025,3.7987,3.7979,3.796,3.7979,3.798,3.7982,3.7976,3.7958,3.7958,3.7958,3.7959,3.8345,3.8324,3.8278,3.8236,3.8187,3.8149,3.8081,3.8056,3.8011,3.799,3.7983,3.7964,3.7989,3.798,3.7961,3.7961,3.796,3.796,3.796,3.8374,3.8357,3.8327,3.8271,3.8231,3.8171,3.8132,3.8088,3.8045,3.8039,3.8013,3.8012,3.8005,3.803,3.803,3.803,3.803,3.803,3.803,3.8417,3.8382,3.8357,3.8302,3.8273,3.8229,3.8159,3.8127,3.8081,3.8051,3.8051,3.8013,3.8,3.7998,3.8031,3.8031,3.8031,3.8031,3.8031,3.8435,3.8424,3.8386,3.8357,3.8288,3.8251,3.8197,3.8137,3.8104,3.8085,3.8049,3.8048,3.8029,3.8025,3.8023,3.806,3.806,3.806,3.806,3.846,3.8447,3.8398,3.8355,3.8308,3.8256,3.8209,3.8154,3.8094,3.807,3.8058,3.8051,3.805,3.8031,3.8028,3.8025,3.8062,3.8062,3.8062,3.8468,3.8449,3.842,3.8367,3.831,3.826,3.8214,3.8163,3.8093,3.8061,3.805,3.805,3.8038,3.8037,3.8004,3.8,3.7994,0,0]}]]